TimeMST,TemperatureF,Dew PointF,Humidity,Sea Level PressureIn,VisibilityMPH,Wind Direction,Wind SpeedMPH,Gust SpeedMPH,PrecipitationIn,Events,Conditions,WindDirDegrees,DateUTC
12:15 AM,68.0,44.6,43,30.04,10.0,NNE,8.1,-,N/A,,Scattered Clouds,30,2013-09-21 07:15:00
12:35 AM,68.0,44.6,43,30.04,10.0,NE,9.2,-,N/A,,Scattered Clouds,40,2013-09-21 07:35:00
12:55 AM,68.0,44.6,43,30.04,10.0,NE,9.2,-,N/A,,Mostly Cloudy,40,2013-09-21 07:55:00
1:15 AM,68.0,44.6,43,30.04,10.0,NE,8.1,-,N/A,,Mostly Cloudy,40,2013-09-21 08:15:00
1:35 AM,69.8,42.8,38,30.05,10.0,SE,5.8,-,N/A,,Mostly Cloudy,130,2013-09-21 08:35:00
1:55 AM,68.0,44.6,43,30.05,10.0,ESE,3.5,-,N/A,,Overcast,110,2013-09-21 08:55:00
2:15 AM,68.0,44.6,43,30.05,10.0,NE,8.1,-,N/A,,Overcast,40,2013-09-21 09:15:00
2:35 AM,68.0,44.6,43,30.05,10.0,ENE,5.8,-,N/A,,Overcast,60,2013-09-21 09:35:00
2:55 AM,68.0,44.6,43,30.05,10.0,ENE,3.5,-,N/A,,Overcast,60,2013-09-21 09:55:00
3:15 AM,68.0,44.6,43,30.05,10.0,ENE,3.5,-,N/A,,Overcast,60,2013-09-21 10:15:00
3:35 AM,68.0,46.4,46,30.05,10.0,Calm,Calm,-,N/A,,Overcast,0,2013-09-21 10:35:00
3:55 AM,68.0,46.4,46,30.05,10.0,Calm,Calm,-,N/A,,Mostly Cloudy,0,2013-09-21 10:55:00
4:15 AM,68.0,46.4,46,30.05,10.0,Calm,Calm,-,N/A,,Mostly Cloudy,0,2013-09-21 11:15:00
4:35 AM,68.0,46.4,46,30.05,10.0,Calm,Calm,-,N/A,,Mostly Cloudy,0,2013-09-21 11:35:00
4:55 AM,68.0,46.4,46,30.05,10.0,NE,4.6,-,N/A,,Mostly Cloudy,40,2013-09-21 11:55:00
5:15 AM,66.2,48.2,52,30.05,10.0,NE,5.8,-,N/A,,Scattered Clouds,40,2013-09-21 12:15:00
5:35 AM,66.2,48.2,52,30.06,10.0,NE,3.5,-,N/A,,Clear,40,2013-09-21 12:35:00
5:55 AM,68.0,48.2,49,30.06,10.0,Calm,Calm,-,N/A,,Scattered Clouds,0,2013-09-21 12:55:00
6:15 AM,66.2,48.2,52,30.06,10.0,Calm,Calm,-,N/A,,Mostly Cloudy,0,2013-09-21 13:15:00
6:35 AM,64.4,50.0,59,30.07,10.0,NE,3.5,-,N/A,,Overcast,50,2013-09-21 13:35:00
6:55 AM,68.0,50.0,52,30.07,10.0,Calm,Calm,-,N/A,,Overcast,0,2013-09-21 13:55:00
7:15 AM,69.8,50.0,49,30.07,10.0,SE,3.5,-,N/A,,Overcast,130,2013-09-21 14:15:00
7:35 AM,69.8,50.0,49,30.07,10.0,SSE,3.5,-,N/A,,Overcast,150,2013-09-21 14:35:00
7:55 AM,69.8,50.0,49,30.08,10.0,Calm,Calm,-,N/A,,Overcast,0,2013-09-21 14:55:00
8:15 AM,73.4,51.8,47,30.08,10.0,South,3.5,-,N/A,,Mostly Cloudy,170,2013-09-21 15:15:00
8:35 AM,73.4,51.8,47,30.08,10.0,SSE,5.8,-,N/A,,Scattered Clouds,160,2013-09-21 15:35:00
8:55 AM,75.2,51.8,44,30.08,10.0,SSE,5.8,-,N/A,,Clear,150,2013-09-21 15:55:00
9:15 AM,77.0,51.8,41,30.08,10.0,SE,10.4,-,N/A,,Clear,130,2013-09-21 16:15:00
9:35 AM,78.8,51.8,39,30.09,10.0,SSE,9.2,-,N/A,,Clear,150,2013-09-21 16:35:00
9:55 AM,77.0,51.8,41,30.09,10.0,SSW,5.8,-,N/A,,Clear,200,2013-09-21 16:55:00
10:15 AM,78.8,51.8,39,30.08,10.0,South,8.1,-,N/A,,Clear,190,2013-09-21 17:15:00
10:35 AM,78.8,51.8,39,30.08,10.0,SSW,9.2,-,N/A,,Clear,200,2013-09-21 17:35:00
10:55 AM,78.8,51.8,39,30.07,10.0,SSE,10.4,16.1,N/A,,Clear,150,2013-09-21 17:55:00
11:15 AM,80.6,50.0,34,30.06,10.0,SSE,8.1,18.4,N/A,,Clear,150,2013-09-21 18:15:00
11:35 AM,82.4,50.0,32,30.06,10.0,SW,5.8,19.6,N/A,,Clear,230,2013-09-21 18:35:00
11:55 AM,82.4,51.8,35,30.05,10.0,South,13.8,18.4,N/A,,Clear,170,2013-09-21 18:55:00
12:15 PM,82.4,50.0,32,30.04,10.0,SSE,15.0,19.6,N/A,,Clear,150,2013-09-21 19:15:00
12:35 PM,84.2,50.0,30,30.03,10.0,SSE,13.8,21.9,N/A,,Clear,160,2013-09-21 19:35:00
12:55 PM,82.4,50.0,32,30.01,10.0,SSE,15.0,21.9,N/A,,Clear,160,2013-09-21 19:55:00
1:15 PM,84.2,50.0,30,30.01,10.0,South,17.3,26.5,N/A,,Clear,180,2013-09-21 20:15:00
1:35 PM,84.2,50.0,30,30.00,10.0,SSW,10.4,19.6,N/A,,Clear,200,2013-09-21 20:35:00
1:55 PM,84.2,51.8,33,29.98,10.0,SSE,16.1,23.0,N/A,,Scattered Clouds,160,2013-09-21 20:55:00
2:15 PM,80.6,50.0,34,29.98,10.0,SSW,11.5,17.3,N/A,,Mostly Cloudy,200,2013-09-21 21:15:00
2:35 PM,82.4,50.0,32,29.97,10.0,SSW,8.1,16.1,N/A,,Mostly Cloudy,210,2013-09-21 21:35:00
2:55 PM,80.6,50.0,34,29.97,10.0,SSW,10.4,19.6,N/A,,Scattered Clouds,200,2013-09-21 21:55:00
3:15 PM,82.4,50.0,32,29.95,10.0,SSW,12.7,23.0,N/A,,Mostly Cloudy,200,2013-09-21 22:15:00
3:35 PM,82.4,50.0,32,29.94,10.0,South,13.8,21.9,N/A,,Scattered Clouds,180,2013-09-21 22:35:00
3:55 PM,78.8,50.0,36,29.94,10.0,South,6.9,19.6,N/A,,Scattered Clouds,170,2013-09-21 22:55:00
4:15 PM,80.6,48.2,32,29.93,10.0,SSW,13.8,20.7,N/A,,Mostly Cloudy,200,2013-09-21 23:15:00
4:35 PM,80.6,46.4,30,29.93,10.0,SW,13.8,27.6,N/A,,Scattered Clouds,220,2013-09-21 23:35:00
4:55 PM,80.6,46.4,30,29.93,10.0,SSW,9.2,24.2,N/A,,Clear,200,2013-09-21 23:55:00
5:15 PM,80.6,46.4,30,29.92,10.0,SSW,10.4,23.0,N/A,,Clear,200,2013-09-22 00:15:00
5:35 PM,78.8,46.4,32,29.92,10.0,SW,13.8,23.0,N/A,,Clear,220,2013-09-22 00:35:00
5:55 PM,78.8,46.4,32,29.92,10.0,SSW,16.1,21.9,N/A,,Scattered Clouds,200,2013-09-22 00:55:00
6:15 PM,78.8,44.6,30,29.91,10.0,SW,15.0,20.7,N/A,,Mostly Cloudy,220,2013-09-22 01:15:00
6:35 PM,77.0,44.6,32,29.91,10.0,SSW,13.8,17.3,N/A,,Mostly Cloudy,210,2013-09-22 01:35:00
6:55 PM,77.0,46.4,34,29.91,10.0,SSW,9.2,-,N/A,,Mostly Cloudy,200,2013-09-22 01:55:00
7:15 PM,75.2,46.4,36,29.91,10.0,SSW,10.4,-,N/A,,Mostly Cloudy,200,2013-09-22 02:15:00
7:35 PM,73.4,46.4,38,29.91,10.0,South,6.9,-,N/A,,Mostly Cloudy,190,2013-09-22 02:35:00
7:55 PM,73.4,46.4,38,29.91,10.0,South,9.2,-,N/A,,Scattered Clouds,190,2013-09-22 02:55:00
8:15 PM,73.4,46.4,38,29.91,10.0,South,8.1,-,N/A,,Mostly Cloudy,170,2013-09-22 03:15:00
8:35 PM,73.4,46.4,38,29.91,10.0,South,10.4,-,N/A,,Scattered Clouds,180,2013-09-22 03:35:00
8:55 PM,71.6,46.4,41,29.90,10.0,South,9.2,-,N/A,,Clear,180,2013-09-22 03:55:00
9:15 PM,71.6,46.4,41,29.90,10.0,South,8.1,-,N/A,,Clear,180,2013-09-22 04:15:00
9:35 PM,71.6,46.4,41,29.90,10.0,South,6.9,-,N/A,,Clear,170,2013-09-22 04:35:00
9:55 PM,71.6,46.4,41,29.90,10.0,South,8.1,-,N/A,,Clear,170,2013-09-22 04:55:00
10:15 PM,71.6,46.4,41,29.90,10.0,South,6.9,-,N/A,,Clear,190,2013-09-22 05:15:00
10:35 PM,71.6,46.4,41,29.90,10.0,South,9.2,-,N/A,,Clear,180,2013-09-22 05:35:00
10:55 PM,71.6,44.6,38,29.89,10.0,South,6.9,-,N/A,,Clear,180,2013-09-22 05:55:00
11:15 PM,71.6,44.6,38,29.89,10.0,South,4.6,-,N/A,,Clear,180,2013-09-22 06:15:00
11:35 PM,71.6,44.6,38,29.89,10.0,South,6.9,-,N/A,,Scattered Clouds,190,2013-09-22 06:35:00
11:55 PM,71.6,44.6,38,29.88,10.0,SSW,6.9,-,N/A,,Mostly Cloudy,200,2013-09-22 06:55:00